Temp
-17 -19 -20 -22 -22 -22 -22 -22 -22 -22 -22 -22 -22 -20 -18 -17 -15 -15 -15 -15 -15 -15 -15 -15 -14 -14 -14 -14 -12 -12 -12 -12
-18 -19 -21 -22 -23 -23 -23 -23 -23 -23 -23 -22 -22 -22 -22 -21 -18 -17 -15 -15 -16 -16 -15 -15 -15 -15 -14 -14 -13 -13 -12 -12
-18 -19 -20 -22 -23 -23 -23 -23 -23 -23 -23 -23 -23 -22 -22 -21 -21 -21 -19 -17 -16 -16 -16 -15 -15 -15 -15 -14 -14 -13 -13 -13
-19 -19 -20 -22 -23 -24 -24 -23 -23 -23 -23 -23 -23 -23 -22 -22 -21 -21 -21 -20 -19 -18 -16 -16 -15 -15 -15 -14 -14 -13 -13 -13
-19 -20 -20 -21 -22 -24 -24 -24 -23 -23 -24 -23 -23 -23 -23 -22 -21 -21 -21 -21 -21 -20 -19 -17 -16 -15 -15 -15 -15 -14 -13 -13
-19 -20 -20 -21 -22 -23 -24 -24 -25 -25 -25 -25 -24 -23 -23 -23 -22 -21 -21 -21 -21 -20 -20 -19 -18 -16 -15 -14 -15 -15 -14 -13
-20 -20 -20 -21 -22 -22 -24 -25 -25 -25 -25 -25 -24 -24 -24 -23 -22 -22 -21 -21 -21 -21 -20 -20 -19 -17 -15 -15 -14 -14 -15 -14
-20 -20 -21 -21 -22 -22 -23 -24 -25 -25 -25 -25 -24 -24 -23 -23 -23 -22 -22 -21 -21 -21 -20 -20 -19 -18 -17 -15 -14 -14 -15 -15
-20 -20 -21 -21 -22 -22 -23 -24 -25 -25 -25 -25 -25 -24 -24 -24 -23 -22 -22 -21 -21 -21 -20 -20 -19 -19 -18 -16 -15 -14 -14 -16
-20 -21 -21 -22 -22 -22 -23 -24 -24 -25 -26 -26 -25 -25 -25 -25 -24 -23 -22 -21 -21 -21 -20 -20 -20 -19 -18 -17 -16 -14 -14 -14
-20 -21 -21 -22 -22 -23 -23 -24 -24 -25 -26 -26 -26 -25 -25 -25 -25 -24 -23 -22 -21 -21 -20 -20 -20 -19 -18 -18 -17 -15 -14 -14
-20 -21 -22 -22 -23 -23 -23 -24 -24 -25 -26 -26 -26 -26 -26 -25 -25 -25 -24 -23 -22 -21 -20 -20 -20 -20 -19 -18 -18 -17 -15 -14
-20 -21 -22 -22 -23 -23 -23 -24 -24 -25 -26 -27 -27 -26 -26 -26 -25 -25 -25 -24 -23 -22 -20 -20 -20 -20 -19 -18 -18 -18 -17 -15
-21 -21 -22 -22 -23 -23 -24 -24 -24 -25 -26 -27 -28 -27 -27 -26 -26 -25 -25 -24 -24 -22 -21 -20 -20 -20 -19 -18 -18 -17 -17 -16
-21 -22 -22 -23 -23 -23 -24 -24 -24 -24 -25 -27 -28 -28 -27 -27 -26 -26 -25 -25 -24 -23 -22 -21 -20 -20 -19 -19 -18 -18 -17 -18
-21 -22 -22 -23 -23 -24 -24 -24 -24 -24 -25 -27 -28 -28 -28 -27 -27 -26 -26 -25 -24 -24 -23 -22 -21 -20 -20 -19 -18 -18 -18 -18
-21 -22 -22 -23 -23 -24 -24 -24 -24 -24 -25 -26 -28 -29 -28 -27 -27 -26 -26 -25 -25 -24 -23 -23 -21 -20 -20 -19 -18 -18 -18 -18
-21 -22 -22 -22 -23 -23 -24 -24 -24 -24 -25 -26 -28 -29 -28 -28 -27 -27 -26 -26 -25 -24 -24 -23 -23 -21 -20 -19 -18 -18 -18 -18
-21 -22 -22 -22 -23 -23 -24 -24 -24 -24 -24 -26 -27 -29 -29 -28 -28 -27 -26 -26 -25 -25 -24 -24 -23 -22 -20 -20 -19 -19 -19 -19
Height
5722 5715 5708 5701 5696 5690 5685 5683 5679 5676 5673 5670 5666 5662 5663 5665 5670 5674 5678 5681 5687 5693 5701 5710 5715 5721 5727 5733 5744 5750 5758 5762
5717 5710 5703 5695 5690 5685 5679 5675 5671 5668 5666 5662 5660 5658 5653 5651 5652 5656 5660 5664 5669 5674 5681 5690 5699 5707 5715 5720 5726 5735 5744 5750
5714 5706 5698 5690 5683 5677 5671 5666 5662 5659 5657 5654 5652 5650 5647 5644 5644 5643 5644 5647 5651 5656 5663 5671 5679 5688 5699 5709 5714 5722 5731 5741
5711 5701 5691 5682 5674 5667 5662 5656 5651 5648 5646 5645 5644 5642 5640 5638 5635 5635 5634 5634 5637 5641 5646 5652 5662 5670 5680 5691 5698 5705 5715 5726
5708 5699 5689 5678 5667 5659 5652 5646 5640 5636 5634 5633 5632 5632 5631 5629 5628 5626 5625 5625 5626 5630 5633 5636 5644 5653 5663 5673 5683 5691 5700 5711
5707 5697 5687 5676 5664 5653 5645 5638 5631 5625 5623 5622 5621 5620 5620 5619 5619 5618 5616 5615 5616 5619 5622 5625 5627 5636 5646 5657 5668 5678 5686 5696
5706 5696 5686 5675 5663 5651 5640 5632 5625 5619 5614 5612 5611 5610 5608 5608 5608 5608 5607 5604 5606 5607 5610 5614 5616 5620 5629 5640 5651 5663 5672 5681
5703 5694 5684 5674 5662 5649 5637 5627 5619 5612 5607 5602 5601 5600 5598 5596 5596 5597 5597 5595 5594 5597 5597 5601 5604 5607 5613 5623 5635 5646 5657 5666
5701 5691 5682 5670 5659 5648 5637 5625 5614 5606 5600 5595 5591 5590 5587 5586 5584 5585 5585 5585 5584 5586 5587 5589 5591 5594 5599 5606 5617 5629 5640 5652
5699 5690 5680 5668 5657 5647 5635 5623 5611 5600 5593 5587 5583 5579 5577 5576 5574 5574 5574 5574 5574 5575 5577 5578 5580 5581 5586 5592 5600 5613 5624 5636
5698 5687 5676 5665 5655 5644 5632 5620 5607 5595 5586 5579 5575 5571 5568 5566 5565 5564 5563 5563 5564 5564 5567 5567 5570 5570 5573 5579 5586 5596 5608 5620
5694 5683 5673 5663 5652 5641 5629 5617 5604 5591 5579 5572 5567 5562 5559 5558 5557 5555 5554 5554 5554 5555 5558 5558 5560 5559 5562 5567 5574 5581 5591 5603
5689 5680 5670 5661 5650 5639 5627 5615 5600 5587 5573 5564 5559 5554 5552 5550 5549 5547 5545 5545 5545 5545 5547 5550 5552 5551 5551 5556 5563 5569 5576 5586
5687 5678 5668 5659 5648 5637 5625 5612 5597 5583 5569 5559 5553 5548 5545 5543 5542 5540 5539 5538 5537 5537 5538 5541 5543 5544 5544 5546 5552 5559 5566 5573
5684 5675 5666 5657 5646 5634 5623 5610 5595 5580 5565 5554 5547 5543 5540 5537 5535 5534 5532 5530 5530 5530 5531 5532 5535 5537 5538 5540 5543 5549 5556 5564
5682 5673 5664 5655 5644 5633 5621 5608 5594 5578 5563 5550 5543 5538 5535 5532 5530 5528 5526 5524 5522 5523 5523 5523 5525 5529 5530 5533 5536 5540 5547 5555
5681 5672 5663 5653 5642 5631 5620 5607 5593 5578 5563 5548 5540 5535 5531 5528 5526 5524 5521 5518 5516 5515 5515 5516 5515 5517 5521 5523 5527 5532 5538 5544
5679 5671 5661 5651 5641 5630 5619 5606 5593 5579 5564 5548 5537 5531 5527 5525 5522 5520 5517 5514 5511 5509 5508 5508 5507 5506 5509 5513 5517 5521 5525 5531
5678 5670 5660 5650 5640 5629 5618 5606 5594 5580 5565 5549 5537 5529 5525 5522 5519 5516 5514 5511 5508 5505 5503 5501 5500 5500 5501 5501 5504 5508 5513 5518
Wind_Speed
44 43 41 38 38 40 40 39 37 37 37 37 37 44 49 58 64 67 68 67 69 72 71 73 69 67 63 61 54 46 53 47
47 46 45 42 38 38 38 36 37 36 33 30 33 35 39 42 51 62 69 70 70 70 70 70 73 73 64 63 60 43 56 57
48 49 46 44 44 40 41 42 41 39 36 36 34 29 32 37 37 37 50 64 70 72 71 69 68 69 71 71 64 58 63 47
48 51 51 49 46 44 42 44 44 43 40 39 38 36 35 33 35 35 37 38 45 53 70 73 70 68 66 67 68 53 60 53
48 50 52 52 48 44 42 42 41 44 45 42 40 39 37 38 36 37 36 37 34 29 33 62 73 71 68 64 66 68 62 58
47 49 51 53 52 46 42 41 41 38 42 42 42 42 39 38 40 39 38 37 38 35 30 31 50 73 71 68 64 60 65 63
47 49 51 52 53 50 43 39 38 36 34 37 39 41 43 39 36 36 40 43 38 35 31 28 28 50 72 71 67 64 62 64
46 48 51 52 53 53 50 42 37 35 35 34 36 37 38 37 37 34 37 40 41 38 34 29 25 33 51 71 71 67 66 67
47 48 49 52 55 54 53 50 40 36 34 33 33 32 33 34 35 36 35 37 39 39 39 35 27 29 37 53 70 71 67 67
46 47 49 51 54 57 56 55 50 39 35 33 31 30 30 29 29 32 34 37 36 37 36 35 30 27 34 40 55 71 72 65
46 48 49 52 54 56 60 59 58 48 36 33 30 30 28 28 28 26 27 32 36 35 35 35 29 27 34 36 42 58 72 70
47 49 51 52 54 56 60 61 61 57 41 33 30 29 28 26 25 25 24 24 29 34 32 32 27 27 31 37 39 45 62 73
48 49 51 52 53 56 58 63 63 63 49 34 31 29 27 23 23 23 24 23 23 27 31 29 25 25 27 37 39 41 48 66
47 49 51 52 54 55 58 62 65 66 54 37 29 28 26 23 22 22 22 22 20 20 27 27 22 22 26 31 38 42 45 52
46 48 51 52 54 55 58 61 65 66 60 42 29 26 25 23 22 22 21 21 18 17 19 24 21 19 24 31 32 35 42 45
44 47 50 52 54 55 57 60 64 67 64 46 32 26 24 23 22 21 20 18 17 14 14 18 19 18 20 32 34 35 36 40
43 46 49 52 54 55 57 60 63 66 66 52 36 26 24 22 20 19 18 17 16 14 12 14 17 16 18 25 36 39 40 39
43 45 48 51 54 56 57 58 61 65 65 57 40 29 24 22 21 19 18 17 16 14 13 13 14 15 18 20 29 38 46 48
42 44 47 50 53 55 57 58 60 63 65 61 46 32 26 24 22 21 19 18 16 15 13 14 12 13 17 18 21 33 40 43
Wind_Direction
339 333 327 322 318 309 304 300 296 290 287 283 280 268 252 246 244 244 246 247 246 245 243 243 248 249 249 249 221 230 222 223
350 342 331 320 315 310 305 302 300 298 293 284 279 278 277 271 252 243 243 244 245 245 244 242 239 243 247 249 244 240 224 223
0 353 342 327 316 303 297 297 296 292 288 286 281 277 277 277 277 273 253 246 245 244 244 242 241 239 234 242 241 248 239 232
0 358 351 339 327 318 307 298 289 288 288 285 282 277 275 276 279 277 275 276 262 255 245 243 241 240 237 233 233 232 235 229
2 359 356 350 339 325 318 310 303 285 283 285 282 279 273 270 270 273 271 274 278 270 261 249 242 240 237 236 235 235 227 225
1 1 358 357 351 338 328 321 319 307 288 287 285 283 285 281 272 265 269 268 271 277 270 258 253 240 238 234 232 233 236 231
0 0 0 358 357 351 337 326 317 314 302 291 288 285 287 287 280 275 269 267 267 273 272 267 258 249 237 235 232 229 231 232
356 358 0 1 360 358 351 335 326 315 307 298 291 289 287 284 278 274 270 270 265 267 273 274 265 247 246 234 231 227 227 231
354 357 358 1 3 0 357 351 333 323 313 303 294 290 285 283 281 275 271 269 266 265 271 273 274 247 240 241 231 229 225 226
355 354 356 360 0 1 359 356 350 330 319 311 302 294 286 286 286 282 276 268 266 265 265 272 274 261 231 234 235 227 226 224
352 355 356 358 360 360 359 356 355 345 325 317 309 302 294 289 289 288 285 276 268 266 266 272 274 267 230 229 226 231 225 223
353 356 357 357 358 358 358 356 354 351 336 320 315 308 303 293 291 291 290 285 273 267 266 269 275 269 233 226 224 224 228 223
355 356 357 356 357 358 357 357 355 354 345 328 319 316 309 300 296 293 293 295 284 271 267 270 266 268 239 223 224 221 221 227
355 356 356 356 356 357 357 357 356 355 350 337 323 319 315 308 302 300 294 294 284 275 268 269 260 262 242 227 225 222 217 220
354 355 355 356 356 356 357 357 357 356 354 343 327 321 319 313 308 306 300 293 284 273 269 269 262 250 248 225 223 226 223 216
354 354 354 356 356 356 356 358 359 358 357 349 335 324 322 318 312 310 305 298 290 276 265 267 263 248 260 233 224 224 226 225
354 353 353 355 356 356 357 359 -0 -0 360 354 343 330 326 324 317 312 314 313 301 288 278 273 272 264 272 238 231 227 228 231
353 353 353 354 355 357 358 359 1 2 2 358 349 338 333 330 326 320 318 318 322 305 293 288 291 286 284 257 237 237 236 232
352 352 352 354 355 357 358 359 1 3 3 3 355 345 337 335 330 326 320 318 322 319 304 296 298 296 290 262 240 232 226 228